,,Stat6,,Stat2,,Stat8,,Stat9,,Stat10,,Wind1,,Wind1,
time,status,PA1M_AVG,status,PR1M_SUM,status,RH1M_AVG,status,SR1M_AVG,status,TA1M_AVG,status,W1dAve1m,status,W1sAve1m,
2004-02-19, 00:00:00,VALID,917.975,VALID,0,VALID,98.5252,VALID,0.0679233,VALID,19.849,VALID,16,VALID,1.07656,
2004-02-19, 00:01:00,VALID,917.964,VALID,0,VALID,98.6066,VALID,0.0169808,VALID,19.849,VALID,18,VALID,1.31541,
2004-02-19, 00:02:00,VALID,917.962,VALID,0,VALID,98.6511,VALID,0.0849042,VALID,19.8299,VALID,19,VALID,1.0785,
2004-02-19, 00:03:00,VALID,917.939,VALID,0,VALID,98.6689,VALID,0,VALID,19.8229,VALID,13,VALID,1.28815,
2004-02-19, 00:04:00,VALID,917.943,VALID,0,VALID,98.6435,VALID,0.0339617,VALID,19.7874,VALID,9,VALID,1.03274,
2004-02-19, 00:05:00,VALID,917.943,VALID,0,VALID,98.6956,VALID,0.0679233,VALID,19.7745,VALID,18,VALID,1.11009,
2004-02-19, 00:06:00,VALID,917.952,VALID,0,VALID,98.7337,VALID,0.0849042,VALID,19.7688,VALID,24,VALID,1.47711,
2004-02-19, 00:07:00,VALID,917.936,VALID,0,VALID,98.8596,VALID,0.101885,VALID,19.7517,VALID,20,VALID,1.25167,
2004-02-19, 00:08:00,VALID,917.929,VALID,0,VALID,98.7363,VALID,0.0509425,VALID,19.7228,VALID,302,VALID,0.620427,
2004-02-19, 00:09:00,VALID,917.92,VALID,0,VALID,98.7185,VALID,0.0509425,VALID,19.6841,VALID,330,VALID,0.615699,
2004-02-19, 00:10:00,VALID,917.909,VALID,0,VALID,98.7108,VALID,0.0339617,VALID,19.6881,VALID,27,VALID,1.1399,
2004-02-19, 00:11:00,VALID,917.888,VALID,0,VALID,98.88,VALID,0.0509425,VALID,19.698,VALID,23,VALID,1.37092,
2004-02-19, 00:12:00,VALID,917.874,VALID,0,VALID,98.955,VALID,0.0339617,VALID,19.697,VALID,22,VALID,0.704527,
2004-02-19, 00:13:00,VALID,917.853,VALID,0,VALID,98.9512,VALID,0.0509425,VALID,19.6908,VALID,12,VALID,1.73438,
2004-02-19, 00:14:00,VALID,917.825,VALID,0,VALID,98.9461,VALID,0.0339617,VALID,19.6722,VALID,9,VALID,1.08822,
2004-02-19, 00:15:00,VALID,917.813,VALID,0,VALID,99.0326,VALID,-0.0509425,VALID,19.6602,VALID,12,VALID,1.15952,
2004-02-19, 00:16:00,VALID,917.809,VALID,0,VALID,99.0504,VALID,-0.0849042,VALID,19.6337,VALID,14,VALID,1.27604,
2004-02-19, 00:17:00,VALID,917.79,VALID,0,VALID,99.1941,VALID,-0.0169808,VALID,19.6443,VALID,13,VALID,0.97168,
2004-02-19, 00:18:00,VALID,917.778,VALID,0,VALID,99.3428,VALID,-0.0679233,VALID,19.6831,VALID,22,VALID,0.947359,
2004-02-19, 00:19:00,VALID,917.749,VALID,0,VALID,99.3644,VALID,-0.0509425,VALID,19.6826,VALID,11,VALID,1.19551,
2004-02-19, 00:20:00,VALID,917.733,VALID,0,VALID,99.236,VALID,-0.0849042,VALID,19.6471,VALID,358,VALID,1.20084,
2004-02-19, 00:21:00,VALID,917.737,VALID,0,VALID,99.3606,VALID,-0.0169808,VALID,19.6535,VALID,17,VALID,0.851944,
2004-02-19, 00:22:00,VALID,917.708,VALID,0,VALID,99.4509,VALID,-0.0509425,VALID,19.6702,VALID,30,VALID,0.94375,
2004-02-19, 00:23:00,VALID,917.684,VALID,0,VALID,99.4853,VALID,-0.0509425,VALID,19.6759,VALID,8,VALID,1.51914,
2004-02-19, 00:24:00,VALID,917.683,VALID,0,VALID,99.4077,VALID,-0.0509425,VALID,19.657,VALID,15,VALID,0.979539,
2004-02-19, 00:25:00,VALID,917.673,VALID,0,VALID,99.4929,VALID,-0.0509425,VALID,19.6667,VALID,360,VALID,0.944511,
2004-02-19, 00:26:00,VALID,917.663,VALID,0,VALID,99.545,VALID,-0.0849042,VALID,19.66,VALID,24,VALID,1.35193,
2004-02-19, 00:27:00,VALID,917.652,VALID,0,VALID,99.573,VALID,-0.101885,VALID,19.6632,VALID,13,VALID,1.31305,
2004-02-19, 00:28:00,VALID,917.645,VALID,0,VALID,99.5298,VALID,-0.101885,VALID,19.6637,VALID,6,VALID,1.47378,
2004-02-19, 00:29:00,VALID,917.635,VALID,0,VALID,99.5412,VALID,-0.0849042,VALID,19.6379,VALID,24,VALID,1.36392,
2004-02-19, 00:30:00,VALID,917.614,VALID,0,VALID,99.6099,VALID,-0.101885,VALID,19.6411,VALID,10,VALID,1.53601,
2004-02-19, 00:31:00,VALID,917.592,VALID,0,VALID,99.5628,VALID,-0.0849042,VALID,19.6185,VALID,9,VALID,1.94229,
2004-02-19, 00:32:00,VALID,917.57,VALID,0,VALID,99.5437,VALID,-0.0849042,VALID,19.5994,VALID,350,VALID,1.57165,
2004-02-19, 00:33:00,VALID,917.569,VALID,0,VALID,99.5908,VALID,-0.118866,VALID,19.58,VALID,308,VALID,1.22154,
2004-02-19, 00:34:00,VALID,917.566,VALID,0,VALID,99.648,VALID,-0.101885,VALID,19.5703,VALID,16,VALID,0.994855,
2004-02-19, 00:35:00,VALID,917.567,VALID,0,VALID,99.7561,VALID,-0.101885,VALID,19.6088,VALID,17,VALID,1.25036,
2004-02-19, 00:36:00,VALID,917.546,VALID,0,VALID,99.7968,VALID,-0.0849042,VALID,19.6312,VALID,10,VALID,1.0174,
2004-02-19, 00:37:00,VALID,917.513,VALID,0,VALID,99.7866,VALID,-0.0849042,VALID,19.6282,VALID,13,VALID,1.45387,
2004-02-19, 00:38:00,VALID,917.507,VALID,0,VALID,99.8006,VALID,-0.101885,VALID,19.6347,VALID,23,VALID,1.34444,
2004-02-19, 00:39:00,VALID,917.509,VALID,0,VALID,99.8133,VALID,-0.0849042,VALID,19.6374,VALID,12,VALID,1.51507,
2004-02-19, 00:40:00,VALID,917.512,VALID,0,VALID,99.8159,VALID,-0.101885,VALID,19.6446,VALID,19,VALID,1.32698,
2004-02-19, 00:41:00,VALID,917.506,VALID,0,VALID,99.8489,VALID,-0.101885,VALID,19.6575,VALID,27,VALID,0.495164,
2004-02-19, 00:42:00,VALID,917.487,VALID,0,VALID,99.896,VALID,-0.101885,VALID,19.6928,VALID,12,VALID,0.562682,
2004-02-19, 00:43:00,VALID,917.474,VALID,0,VALID,99.9125,VALID,-0.0679233,VALID,19.7059,VALID,16,VALID,0.496626,
2004-02-19, 00:44:00,VALID,917.462,VALID,0,VALID,99.8998,VALID,-0.0339617,VALID,19.7124,VALID,355,VALID,0.048971,
2004-02-19, 00:45:00,VALID,917.435,VALID,0,VALID,99.8527,VALID,0,VALID,19.6754,VALID,345,VALID,0.748857,
2004-02-19, 00:46:00,VALID,917.407,VALID,0,VALID,99.8324,VALID,0.0169808,VALID,19.6891,VALID,19,VALID,0.981771,
2004-02-19, 00:47:00,VALID,917.388,VALID,0,VALID,99.8349,VALID,0.0169808,VALID,19.6784,VALID,17,VALID,1.09986,
2004-02-19, 00:48:00,VALID,917.378,VALID,0,VALID,99.826,VALID,0.0169808,VALID,19.6689,VALID,13,VALID,0.678597,
2004-02-19, 00:49:00,VALID,917.347,VALID,0,VALID,99.8032,VALID,0.0169808,VALID,19.6784,VALID,21,VALID,0.893403,
2004-02-19, 00:50:00,VALID,917.318,VALID,0,VALID,99.826,VALID,0.0169808,VALID,19.691,VALID,15,VALID,1.20541,
2004-02-19, 00:51:00,VALID,917.304,VALID,0,VALID,99.8286,VALID,0,VALID,19.7211,VALID,20,VALID,1.16406,
2004-02-19, 00:52:00,VALID,917.302,VALID,0,VALID,99.8527,VALID,0,VALID,19.7271,VALID,26,VALID,0.67242,
2004-02-19, 00:53:00,VALID,917.279,VALID,0,VALID,99.8896,VALID,0.0169808,VALID,19.7596,VALID,34,VALID,0.599276,
2004-02-19, 00:54:00,VALID,917.272,VALID,0,VALID,99.8502,VALID,0.0169808,VALID,19.7397,VALID,23,VALID,0.711328,
2004-02-19, 00:55:00,VALID,917.249,VALID,0,VALID,99.807,VALID,0.0169808,VALID,19.7397,VALID,14,VALID,0.959121,
2004-02-19, 00:56:00,VALID,917.25,VALID,0,VALID,99.8095,VALID,0,VALID,19.7266,VALID,349,VALID,0.399528,
2004-02-19, 00:57:00,VALID,917.223,VALID,0.2,VALID,99.779,VALID,0.0169808,VALID,19.7335,VALID,328,VALID,0.25744,
2004-02-19, 00:58:00,VALID,917.191,VALID,0,VALID,99.7663,VALID,0.0169808,VALID,19.7367,VALID,337,VALID,0.350654,
2004-02-19, 00:59:00,VALID,917.16,VALID,0,VALID,99.7981,VALID,0.0169808,VALID,19.7494,VALID,13,VALID,0.662574,
2004-02-19, 01:00:00,VALID,917.123,VALID,0,VALID,99.8337,VALID,0,VALID,19.7623,VALID,16,VALID,1.1359,
2004-02-19, 01:01:00,VALID,917.086,VALID,0,VALID,99.8515,VALID,0,VALID,19.7795,VALID,16,VALID,1.06231,
2004-02-19, 01:02:00,VALID,917.066,VALID,0,VALID,99.84,VALID,0.0169808,VALID,19.782,VALID,51,VALID,0.272852,
2004-02-19, 01:03:00,VALID,917.048,VALID,0.2,VALID,99.8884,VALID,0.0169808,VALID,19.8083,VALID,52,VALID,0.441034,
2004-02-19, 01:04:00,VALID,917.023,VALID,0,VALID,99.8515,VALID,0,VALID,19.8048,VALID,47,VALID,0.195482,
2004-02-19, 01:05:00,VALID,916.977,VALID,0,VALID,99.7981,VALID,0.0169808,VALID,19.7688,VALID,38,VALID,0.459847,
2004-02-19, 01:06:00,VALID,916.951,VALID,0,VALID,99.7943,VALID,0.0339617,VALID,19.7723,VALID,45,VALID,0.214844,
2004-02-19, 01:07:00,VALID,916.927,VALID,0,VALID,99.7714,VALID,0.0339617,VALID,19.7526,VALID,95,VALID,0.262153,
2004-02-19, 01:08:00,VALID,916.897,VALID,0,VALID,99.8006,VALID,0.0169808,VALID,19.7596,VALID,82,VALID,0.304324,
2004-02-19, 01:09:00,VALID,916.87,VALID,0,VALID,99.8057,VALID,0.0169808,VALID,19.7596,VALID,75,VALID,0.0654762,
2004-02-19, 01:10:00,VALID,916.842,VALID,0,VALID,99.8502,VALID,0,VALID,19.7656,VALID,29,VALID,0.369665,
2004-02-19, 01:11:00,VALID,916.819,VALID,0,VALID,99.8718,VALID,0.0169808,VALID,19.7785,VALID,4,VALID,0.401989,
2004-02-19, 01:12:00,VALID,916.804,VALID,0,VALID,99.8502,VALID,0.0169808,VALID,19.7782,VALID,25,VALID,0.831641,
2004-02-19, 01:13:00,VALID,916.797,VALID,0,VALID,99.8896,VALID,0.0339617,VALID,19.8011,VALID,19,VALID,0.726935,
2004-02-19, 01:14:00,VALID,916.764,VALID,0,VALID,99.9125,VALID,0,VALID,19.8172,VALID,11,VALID,0.902344,
2004-02-19, 01:15:00,VALID,916.763,VALID,0,VALID,99.8375,VALID,0.0339617,VALID,19.7723,VALID,3,VALID,0.516578,
2004-02-19, 01:16:00,VALID,916.751,VALID,0,VALID,99.8121,VALID,0.0339617,VALID,19.7623,VALID,1,VALID,0.108774,
2004-02-19, 01:17:00,VALID,916.728,VALID,0,VALID,99.7917,VALID,0.0509425,VALID,19.7494,VALID,1,VALID,0.0392485,
2004-02-19, 01:18:00,VALID,916.707,VALID,0,VALID,99.793,VALID,0.0339617,VALID,19.7459,VALID,3,VALID,0.254006,
2004-02-19, 01:19:00,VALID,916.686,VALID,0,VALID,99.8553,VALID,0.0339617,VALID,19.7755,VALID,353,VALID,0.60625,
2004-02-19, 01:20:00,VALID,916.663,VALID,0,VALID,99.8896,VALID,0.0509425,VALID,19.7844,VALID,313,VALID,0.148785,
2004-02-19, 01:21:00,VALID,916.634,VALID,0,VALID,99.8566,VALID,0.0339617,VALID,19.7787,VALID,28,VALID,0.644336,
2004-02-19, 01:22:00,VALID,916.613,VALID,0,VALID,99.8502,VALID,0.0509425,VALID,19.7919,VALID,18,VALID,0.637355,
2004-02-19, 01:23:00,VALID,916.589,VALID,0,VALID,99.8845,VALID,0.0169808,VALID,19.7884,VALID,19,VALID,0.582031,
2004-02-19, 01:24:00,VALID,916.564,VALID,0,VALID,99.9062,VALID,0.0339617,VALID,19.7979,VALID,28,VALID,0.601563,
2004-02-19, 01:25:00,VALID,916.528,VALID,0,VALID,99.8871,VALID,0,VALID,19.7817,VALID,22,VALID,0.544695,
2004-02-19, 01:26:00,VALID,916.522,VALID,0,VALID,99.8934,VALID,0,VALID,19.7782,VALID,18,VALID,0.866815,
2004-02-19, 01:27:00,VALID,916.513,VALID,0,VALID,99.9125,VALID,0.0339617,VALID,19.7849,VALID,20,VALID,0.810268,
2004-02-19, 01:28:00,VALID,916.492,VALID,0,VALID,99.9265,VALID,0,VALID,19.7949,VALID,23,VALID,1.0465,
2004-02-19, 01:29:00,VALID,916.492,VALID,0,VALID,99.9036,VALID,0.0169808,VALID,19.7849,VALID,16,VALID,0.919837,
2004-02-19, 01:30:00,VALID,916.494,VALID,0,VALID,99.8896,VALID,0.0169808,VALID,19.772,VALID,25,VALID,0.798781,
2004-02-19, 01:31:00,VALID,916.48,VALID,0,VALID,99.8807,VALID,0.0339617,VALID,19.7559,VALID,24,VALID,0.641868,
2004-02-19, 01:32:00,VALID,916.477,VALID,0,VALID,99.8744,VALID,0.0339617,VALID,19.7365,VALID,20,VALID,0.679869,
2004-02-19, 01:33:00,VALID,916.479,VALID,0,VALID,99.8731,VALID,0.0169808,VALID,19.737,VALID,21,VALID,0.539063,
2004-02-19, 01:34:00,VALID,916.471,VALID,0,VALID,99.8871,VALID,0.0509425,VALID,19.734,VALID,21,VALID,0.392624,
2004-02-19, 01:35:00,VALID,916.459,VALID,0,VALID,99.8998,VALID,0.0509425,VALID,19.74,VALID,21,VALID,0.314596,
2004-02-19, 01:36:00,VALID,916.46,VALID,0,VALID,99.9151,VALID,0,VALID,19.7432,VALID,20,VALID,0.355469,
2004-02-19, 01:37:00,VALID,916.458,VALID,0,VALID,99.9316,VALID,0.0509425,VALID,19.7464,VALID,355,VALID,0.31032,
2004-02-19, 01:38:00,VALID,916.455,VALID,0,VALID,99.9468,VALID,0,VALID,19.7365,VALID,355,VALID,0.0853795,
2004-02-19, 01:39:00,VALID,916.456,VALID,0,VALID,99.9341,VALID,0,VALID,19.7472,VALID,355,VALID,0,
2004-02-19, 01:40:00,VALID,916.439,VALID,0,VALID,99.9468,VALID,0,VALID,19.7432,VALID,357,VALID,0.0817708,
2004-02-19, 01:41:00,VALID,916.421,VALID,0,VALID,99.9379,VALID,0.0169808,VALID,19.7435,VALID,20,VALID,0.680035,
2004-02-19, 01:42:00,VALID,916.407,VALID,0,VALID,99.9265,VALID,0.0169808,VALID,19.74,VALID,17,VALID,0.349201,
2004-02-19, 01:43:00,VALID,916.379,VALID,0,VALID,99.9189,VALID,0,VALID,19.7238,VALID,17,VALID,0.254002,
2004-02-19, 01:44:00,VALID,916.352,VALID,0,VALID,99.9125,VALID,0,VALID,19.7176,VALID,17,VALID,0.600521,
2004-02-19, 01:45:00,VALID,916.35,VALID,0,VALID,99.854,VALID,0.0169808,VALID,19.6684,VALID,2,VALID,1.03646,
2004-02-19, 01:46:00,VALID,916.346,VALID,0,VALID,99.8146,VALID,0,VALID,19.6525,VALID,9,VALID,1.03374,
2004-02-19, 01:47:00,VALID,916.347,VALID,0,VALID,99.7879,VALID,0.0169808,VALID,19.6434,VALID,14,VALID,1.03178,
2004-02-19, 01:48:00,VALID,916.366,VALID,0,VALID,99.826,VALID,0,VALID,19.6496,VALID,24,VALID,1.01581,
2004-02-19, 01:49:00,VALID,916.38,VALID,0,VALID,99.826,VALID,0,VALID,19.6662,VALID,343,VALID,1.06484,
2004-02-19, 01:50:00,VALID,916.388,VALID,0,VALID,99.7383,VALID,0,VALID,19.6173,VALID,341,VALID,0.37718,
2004-02-19, 01:51:00,VALID,916.413,VALID,0,VALID,99.7688,VALID,0,VALID,19.6309,VALID,12,VALID,1.14531,
2004-02-19, 01:52:00,VALID,916.427,VALID,0,VALID,99.7675,VALID,0,VALID,19.627,VALID,344,VALID,0.867383,
2004-02-19, 01:53:00,VALID,916.429,VALID,0,VALID,99.7536,VALID,0,VALID,19.627,VALID,360,VALID,1.01363,
2004-02-19, 01:54:00,VALID,916.43,VALID,0,VALID,99.7587,VALID,0.0169808,VALID,19.617,VALID,2,VALID,0.971354,
2004-02-19, 01:55:00,VALID,916.435,VALID,0,VALID,99.7752,VALID,0.0509425,VALID,19.6367,VALID,16,VALID,1.10719,
2004-02-19, 01:56:00,VALID,916.431,VALID,0,VALID,99.7968,VALID,0.0169808,VALID,19.626,VALID,14,VALID,0.887005,
2004-02-19, 01:57:00,VALID,916.436,VALID,0,VALID,99.7548,VALID,0.0509425,VALID,19.627,VALID,360,VALID,0.792188,
2004-02-19, 01:58:00,VALID,916.428,VALID,0,VALID,99.7625,VALID,0.0169808,VALID,19.6103,VALID,9,VALID,0.625953,
2004-02-19, 01:59:00,VALID,916.421,VALID,0,VALID,99.7866,VALID,0.0339617,VALID,19.62,VALID,17,VALID,1.0158,
2004-02-19, 02:00:00,VALID,916.404,VALID,0,VALID,99.7904,VALID,0,VALID,19.6208,VALID,20,VALID,1.00107,
2004-02-19, 02:01:00,VALID,916.396,VALID,0,VALID,99.7841,VALID,0,VALID,19.6242,VALID,311,VALID,0.849085,
2004-02-19, 02:02:00,VALID,916.37,VALID,0,VALID,99.6531,VALID,0,VALID,19.5753,VALID,269,VALID,0.397321,
2004-02-19, 02:03:00,VALID,916.351,VALID,0,VALID,99.676,VALID,0,VALID,19.591,VALID,13,VALID,0.513207,
2004-02-19, 02:04:00,VALID,916.33,VALID,0,VALID,99.7281,VALID,0,VALID,19.6076,VALID,358,VALID,0.492535,
2004-02-19, 02:05:00,VALID,916.306,VALID,0,VALID,99.7294,VALID,-0.0339617,VALID,19.6205,VALID,4,VALID,0.760538,
2004-02-19, 02:06:00,VALID,916.298,VALID,0,VALID,99.7205,VALID,0.0169808,VALID,19.6277,VALID,9,VALID,0.767857,
2004-02-19, 02:07:00,VALID,916.274,VALID,0,VALID,99.6976,VALID,0,VALID,19.621,VALID,359,VALID,1.18023,
2004-02-19, 02:08:00,VALID,916.251,VALID,0,VALID,99.5832,VALID,0.0339617,VALID,19.5914,VALID,360,VALID,1.17431,
2004-02-19, 02:09:00,VALID,916.232,VALID,0,VALID,99.5921,VALID,-0.0169808,VALID,19.5855,VALID,2,VALID,1.0717,
2004-02-19, 02:10:00,VALID,916.221,VALID,0,VALID,99.6404,VALID,0,VALID,19.5912,VALID,23,VALID,1.00763,
2004-02-19, 02:11:00,VALID,916.199,VALID,0,VALID,99.6811,VALID,-0.0169808,VALID,19.618,VALID,20,VALID,0.837139,
2004-02-19, 02:12:00,VALID,916.177,VALID,0,VALID,99.6378,VALID,0.0339617,VALID,19.6113,VALID,8,VALID,0.920486,
2004-02-19, 02:13:00,VALID,916.188,VALID,0,VALID,99.6061,VALID,0,VALID,19.6046,VALID,333,VALID,0.721608,
2004-02-19, 02:14:00,VALID,916.167,VALID,0,VALID,99.5895,VALID,0.0169808,VALID,19.6051,VALID,346,VALID,0.477865,
2004-02-19, 02:15:00,VALID,916.144,VALID,0,VALID,99.6582,VALID,0,VALID,19.588,VALID,13,VALID,0.660442,
2004-02-19, 02:16:00,VALID,916.11,VALID,0,VALID,99.704,VALID,0,VALID,19.6242,VALID,356,VALID,0.754278,
2004-02-19, 02:17:00,VALID,916.102,VALID,0,VALID,99.6544,VALID,0,VALID,19.6046,VALID,7,VALID,0.558398,
2004-02-19, 02:18:00,VALID,916.09,VALID,0,VALID,99.6569,VALID,0,VALID,19.5949,VALID,4,VALID,0.349805,
2004-02-19, 02:19:00,VALID,916.061,VALID,0,VALID,99.7383,VALID,0.0339617,VALID,19.6309,VALID,5,VALID,0.224516,
2004-02-19, 02:20:00,VALID,916.044,VALID,0,VALID,99.7434,VALID,0.0169808,VALID,19.6339,VALID,5,VALID,0.302024,
2004-02-19, 02:21:00,VALID,916.031,VALID,0,VALID,99.7459,VALID,0.0169808,VALID,19.6302,VALID,5,VALID,0.00545058,
2004-02-19, 02:22:00,VALID,916.013,VALID,0,VALID,99.7408,VALID,0.0339617,VALID,19.6339,VALID,5,VALID,0,
2004-02-19, 02:23:00,VALID,916.012,VALID,0,VALID,99.7765,VALID,-0.0169808,VALID,19.6498,VALID,5,VALID,0,
2004-02-19, 02:24:00,VALID,916.01,VALID,0,VALID,99.8108,VALID,0,VALID,19.6593,VALID,5,VALID,0,
2004-02-19, 02:25:00,VALID,916.005,VALID,0,VALID,99.7866,VALID,0,VALID,19.6756,VALID,5,VALID,0.180618,
2004-02-19, 02:26:00,VALID,915.995,VALID,0,VALID,99.7548,VALID,0.0169808,VALID,19.6488,VALID,20,VALID,0.697311,
2004-02-19, 02:27:00,VALID,915.996,VALID,0,VALID,99.7714,VALID,0,VALID,19.6627,VALID,13,VALID,0.757449,
2004-02-19, 02:28:00,VALID,916.004,VALID,0,VALID,99.7625,VALID,0.0169808,VALID,19.663,VALID,328,VALID,0.319602,
2004-02-19, 02:29:00,VALID,916.01,VALID,0,VALID,99.7459,VALID,0,VALID,19.6501,VALID,267,VALID,0.221227,
2004-02-19, 02:30:00,VALID,915.998,VALID,0,VALID,99.7955,VALID,0.0169808,VALID,19.663,VALID,249,VALID,0.265997,
2004-02-19, 02:31:00,VALID,915.989,VALID,0,VALID,99.821,VALID,0,VALID,19.6622,VALID,217,VALID,0.176599,
2004-02-19, 02:32:00,VALID,915.982,VALID,0,VALID,99.8642,VALID,0.0339617,VALID,19.7047,VALID,338,VALID,0.733008,
2004-02-19, 02:33:00,VALID,915.958,VALID,0,VALID,99.9112,VALID,0,VALID,19.7243,VALID,23,VALID,1.08557,
2004-02-19, 02:34:00,VALID,915.942,VALID,0,VALID,99.8731,VALID,0,VALID,19.7179,VALID,24,VALID,1.43633,
2004-02-19, 02:35:00,VALID,915.925,VALID,0.2,VALID,99.8769,VALID,0.0169808,VALID,19.7012,VALID,4,VALID,0.501817,
2004-02-19, 02:36:00,VALID,915.887,VALID,0,VALID,99.8515,VALID,0,VALID,19.7047,VALID,9,VALID,0.414426,
2004-02-19, 02:37:00,VALID,915.869,VALID,0,VALID,99.8222,VALID,0.0169808,VALID,19.6722,VALID,25,VALID,0.662538,
2004-02-19, 02:38:00,VALID,915.847,VALID,0,VALID,99.8324,VALID,0,VALID,19.6724,VALID,18,VALID,0.152951,
2004-02-19, 02:39:00,VALID,915.845,VALID,0,VALID,99.8019,VALID,0,VALID,19.6501,VALID,18,VALID,0.136814,
2004-02-19, 02:40:00,VALID,915.829,VALID,0,VALID,99.8121,VALID,0.0339617,VALID,19.6496,VALID,17,VALID,0.228299,
2004-02-19, 02:41:00,VALID,915.823,VALID,0,VALID,99.8362,VALID,0,VALID,19.653,VALID,21,VALID,0.548633,
2004-02-19, 02:42:00,VALID,915.814,VALID,0,VALID,99.8655,VALID,0,VALID,19.6622,VALID,21,VALID,0.0615473,
2004-02-19, 02:43:00,VALID,915.801,VALID,0,VALID,99.8706,VALID,-0.0169808,VALID,19.6824,VALID,20,VALID,0.257031,
2004-02-19, 02:44:00,VALID,915.787,VALID,0,VALID,99.9062,VALID,0.0169808,VALID,19.6918,VALID,15,VALID,0.600497,
2004-02-19, 02:45:00,VALID,915.774,VALID,0,VALID,99.9265,VALID,0.0169808,VALID,19.7082,VALID,25,VALID,0.790838,
2004-02-19, 02:46:00,VALID,915.756,VALID,0,VALID,99.929,VALID,0.0169808,VALID,19.7082,VALID,21,VALID,1.21493,
2004-02-19, 02:47:00,VALID,915.749,VALID,0.2,VALID,99.9265,VALID,0,VALID,19.7087,VALID,359,VALID,0.530297,
2004-02-19, 02:48:00,VALID,915.764,VALID,0,VALID,99.8845,VALID,0.0169808,VALID,19.6754,VALID,235,VALID,0.132303,
2004-02-19, 02:49:00,VALID,915.764,VALID,0,VALID,99.8616,VALID,0,VALID,19.666,VALID,292,VALID,0.300327,
2004-02-19, 02:50:00,VALID,915.76,VALID,0,VALID,99.8718,VALID,0,VALID,19.6627,VALID,18,VALID,0.628516,
2004-02-19, 02:51:00,VALID,915.757,VALID,0,VALID,99.8858,VALID,-0.0169808,VALID,19.6563,VALID,14,VALID,0.230035,
2004-02-19, 02:52:00,VALID,915.753,VALID,0,VALID,99.8769,VALID,0,VALID,19.6337,VALID,14,VALID,0.135174,
2004-02-19, 02:53:00,VALID,915.747,VALID,0,VALID,99.8909,VALID,0,VALID,19.6501,VALID,14,VALID,0.197545,
2004-02-19, 02:54:00,VALID,915.752,VALID,0,VALID,99.9265,VALID,-0.0169808,VALID,19.6662,VALID,14,VALID,0,
2004-02-19, 02:55:00,VALID,915.74,VALID,0,VALID,99.9507,VALID,0,VALID,19.6789,VALID,14,VALID,0.0356571,
2004-02-19, 02:56:00,VALID,915.73,VALID,0,VALID,99.9367,VALID,0,VALID,19.6819,VALID,32,VALID,0.628634,
2004-02-19, 02:57:00,VALID,915.737,VALID,0,VALID,99.9481,VALID,0,VALID,19.6821,VALID,17,VALID,0.213844,
2004-02-19, 02:58:00,VALID,915.722,VALID,0,VALID,99.9723,VALID,0,VALID,19.702,VALID,17,VALID,0.000372024,
2004-02-19, 02:59:00,VALID,915.74,VALID,0,VALID,99.9685,VALID,-0.0339617,VALID,19.6995,VALID,17,VALID,0.0118963,
2004-02-19, 03:00:00,VALID,915.759,VALID,0,VALID,99.9494,VALID,-0.0849042,VALID,19.6771,VALID,13,VALID,0.0613839,
2004-02-19, 03:01:00,VALID,915.753,VALID,0.2,VALID,99.8947,VALID,-0.0849042,VALID,19.6476,VALID,325,VALID,0.229992,
2004-02-19, 03:02:00,VALID,915.742,VALID,0,VALID,99.8527,VALID,-0.0849042,VALID,19.6123,VALID,277,VALID,0.244913,
2004-02-19, 03:03:00,VALID,915.733,VALID,0,VALID,99.8527,VALID,-0.0849042,VALID,19.5803,VALID,233,VALID,0.617569,
2004-02-19, 03:04:00,VALID,915.743,VALID,0.2,VALID,99.8642,VALID,-0.0679233,VALID,19.5736,VALID,236,VALID,0.478472,
2004-02-19, 03:05:00,VALID,915.762,VALID,0,VALID,99.8858,VALID,-0.101885,VALID,19.5634,VALID,236,VALID,0.122396,
2004-02-19, 03:06:00,VALID,915.763,VALID,0,VALID,99.882,VALID,-0.101885,VALID,19.5509,VALID,237,VALID,0.698765,
2004-02-19, 03:07:00,VALID,915.767,VALID,0,VALID,99.8833,VALID,-0.101885,VALID,19.5383,VALID,242,VALID,0.986979,
2004-02-19, 03:08:00,VALID,915.751,VALID,0,VALID,99.8858,VALID,-0.101885,VALID,19.5191,VALID,266,VALID,0.361719,
2004-02-19, 03:09:00,VALID,915.754,VALID,0.2,VALID,99.9329,VALID,-0.0849042,VALID,19.5187,VALID,261,VALID,0.52168,
2004-02-19, 03:10:00,VALID,915.752,VALID,0,VALID,99.9456,VALID,-0.0849042,VALID,19.5194,VALID,242,VALID,0.490625,
2004-02-19, 03:11:00,VALID,915.767,VALID,0,VALID,99.9659,VALID,-0.118866,VALID,19.5187,VALID,264,VALID,0.853379,
2004-02-19, 03:12:00,VALID,915.763,VALID,0,VALID,99.9761,VALID,-0.0849042,VALID,19.5124,VALID,254,VALID,0.644804,
2004-02-19, 03:13:00,VALID,915.753,VALID,0,VALID,99.998,VALID,-0.101885,VALID,19.5191,VALID,318,VALID,0.439918,
2004-02-19, 03:14:00,VALID,915.772,VALID,0.2,VALID,100,VALID,-0.0679233,VALID,19.5283,VALID,301,VALID,0.384673,
2004-02-19, 03:15:00,VALID,915.784,VALID,0,VALID,100,VALID,-0.0679233,VALID,19.5283,VALID,287,VALID,0.499273,
2004-02-19, 03:16:00,VALID,915.795,VALID,0.2,VALID,100,VALID,-0.0339617,VALID,19.5477,VALID,16,VALID,0.981468,
2004-02-19, 03:17:00,VALID,915.783,VALID,0,VALID,100,VALID,-0.0679233,VALID,19.5803,VALID,26,VALID,0.62517,
2004-02-19, 03:18:00,VALID,915.764,VALID,0.2,VALID,100,VALID,-0.0509425,VALID,19.6024,VALID,358,VALID,0.714286,
2004-02-19, 03:19:00,VALID,915.778,VALID,0.2,VALID,100,VALID,-0.0509425,VALID,19.5989,VALID,201,VALID,0.65359,
2004-02-19, 03:20:00,VALID,915.763,VALID,0.2,VALID,100,VALID,0,VALID,19.5862,VALID,185,VALID,1.15171,
2004-02-19, 03:21:00,VALID,915.781,VALID,0.2,VALID,100,VALID,-0.0849042,VALID,19.5999,VALID,5,VALID,1.0087,
2004-02-19, 03:22:00,VALID,915.771,VALID,0.2,VALID,100,VALID,-0.0849042,VALID,19.6125,VALID,86,VALID,0.685268,
2004-02-19, 03:23:00,VALID,915.781,VALID,0.4,VALID,100,VALID,-0.0509425,VALID,19.6026,VALID,188,VALID,0.714472,
2004-02-19, 03:24:00,VALID,915.795,VALID,0,VALID,100,VALID,-0.0849042,VALID,19.5892,VALID,190,VALID,0.413699,
2004-02-19, 03:25:00,VALID,915.781,VALID,0.2,VALID,100,VALID,-0.0849042,VALID,19.583,VALID,174,VALID,0.78054,
2004-02-19, 03:26:00,VALID,915.806,VALID,0.2,VALID,100,VALID,-0.0339617,VALID,19.5706,VALID,234,VALID,0.501817,
2004-02-19, 03:27:00,VALID,915.79,VALID,0,VALID,100,VALID,-0.0339617,VALID,19.5601,VALID,177,VALID,0.946243,
2004-02-19, 03:28:00,VALID,915.8,VALID,0.2,VALID,100,VALID,-0.0509425,VALID,19.5445,VALID,190,VALID,0.81901,
2004-02-19, 03:29:00,VALID,915.832,VALID,0,VALID,100,VALID,-0.0679233,VALID,19.5442,VALID,298,VALID,0.764205,
2004-02-19, 03:30:00,VALID,915.853,VALID,0.2,VALID,100,VALID,-0.0509425,VALID,19.5445,VALID,266,VALID,0.539621,
2004-02-19, 03:31:00,VALID,915.867,VALID,0,VALID,100,VALID,-0.0679233,VALID,19.5249,VALID,259,VALID,0.887607,
2004-02-19, 03:32:01,VALID,915.868,VALID,0.2,VALID,100,VALID,-0.0679233,VALID,19.5219,VALID,263,VALID,1.09783,
2004-02-19, 03:33:00,VALID,915.883,VALID,0.4,VALID,100,VALID,-0.0849042,VALID,19.5221,VALID,210,VALID,0.571646,
2004-02-19, 03:34:00,VALID,915.858,VALID,0.2,VALID,100,VALID,-0.0679233,VALID,19.5189,VALID,216,VALID,1.05996,
2004-02-19, 03:35:00,VALID,915.787,VALID,0.2,VALID,100,VALID,-0.0679233,VALID,19.5157,VALID,218,VALID,2.18145,
2004-02-19, 03:36:01,VALID,915.853,VALID,0,VALID,100,VALID,-0.0679233,VALID,19.5221,VALID,319,VALID,1.39702,
2004-02-19, 03:37:00,VALID,915.858,VALID,0.2,VALID,100,VALID,-0.0679233,VALID,19.5544,VALID,44,VALID,0.627544,